Regional Weather Roundup
Issued by NWS

Home | Current Version | Previous Version | Graphics & Text | Print | Product List | Glossary On
Versions: 1 2 3 4 5 6 7 8 9 10 11 12 13 14 15 16 17 18 19 20 21 22 23 24 25 26 27 28 29 30 31 32 33 34 35 36 37 38 39 40 41 42 43 44 45 46 47 48 49 50
000
ASUS43 KMKX 060210
RWRWI

WISCONSIN REGIONAL WEATHER ROUNDUP
NATIONAL WEATHER SERVICE MILWAUKEE/SULLIVAN WI
800 PM CST THU MAR 05 2015

NOTE: "FAIR" INDICATES FEW OR NO CLOUDS BELOW 12,000 FEET WITH NO
SIGNIFICANT WEATHER AND/OR OBSTRUCTIONS TO VISIBILITY.

WIZ001-002-006>008-014>016-023>028-060300-
NORTHWEST WISCONSIN

CITY           SKY/WX    TMP DP  RH WIND       PRES   REMARKS
SUPERIOR ARPT  FAIR       9  -4  53 SW10      30.32F WCI  -5
ASHLAND        CLEAR      7  -9  48 SW10      30.32F WCI  -8
HAYWARD        CLEAR      3 -10  54 S7        30.32F WCI  -9
SIREN          PTCLDY     4  -7  60 S3        30.35F
CUMBERLAND     PTCLDY     1  -8  66 S8        30.34F WCI -12
RICE LAKE      PTCLDY     4  -6  62 S5        30.38S WCI  -5
CHETEK         PTCLDY     3  -6  66 CALM      30.37F
LADYSMITH      PTCLDY     4  -9  55 S5        30.37F WCI  -5
EAU CLAIRE     MOCLDY     4  -7  60 S7        30.40F WCI  -8
MENOMONIE      MOCLDY     6  -4  65 S5        30.40F WCI  -3
NEW RICHMOND   PTCLDY     7  -2  65 S7        30.37F WCI  -4
OSCEOLA        PTCLDY     5  -3  68 S7        30.39F WCI  -7
$$

WIZ003>005-009-010-017-018-060300-
NORTH CENTRAL WISCONSIN

CITY           SKY/WX    TMP DP  RH WIND       PRES   REMARKS
MANITOWISH WTR CLEAR      4 -13  44 SW8       30.27S WCI  -9
ARBOR VITAE    CLEAR      6 -13  41 SW7       30.27F WCI  -6
WOODRUFF       CLEAR      6 -13  41 SW7       30.27F WCI  -6
RHINELANDER    CLEAR      4 -10  52 SW12      30.30R WCI -12
EAGLE RIVER    FAIR       5 -14  41 SW9       30.26S WCI -10
LAND O LAKES   CLEAR      6 -12  42 SW6       30.25S WCI  -4
PHILLIPS       PTCLDY     2 -13  50 SW5       30.31S WCI  -8
TOMAHAWK       PTCLDY     3 -10  54 CALM      30.33S
MEDFORD        PTCLDY     0 -12  57 SW3       30.33F
MERRILL        PTCLDY     1 -10  57 CALM      30.35F
$$

WIZ029-030-035-036-043>047-060300-
CENTRAL WISCONSIN

CITY           SKY/WX    TMP DP  RH WIND       PRES   REMARKS
WAUSAU         PTCLDY     4  -9  55 SW5       30.36F WCI  -5
MOSINEE        CLEAR      3  -9  55 W6        30.38S WCI  -8
MARSHFIELD     PTCLDY     5  -9  52 SW6       30.37F WCI  -6
STEVENS POINT  PTCLDY    -1 -10  63 CALM      30.40F
WAUPACA        PTCLDY     9  -6  50 SW5       30.43S WCI   1
WAUTOMA        PTCLDY     8  -8  48 SW6       30.45S WCI  -2
WISC RAPIDS    PTCLDY     9  -9  44 W6        30.42F WCI  -1
CAMP DOUGLAS   CLEAR      9  -4  56 SW8       30.44S WCI  -4
$$

WIZ011>013-019>022-031-037>040-048>050-060300-
NORTHEAST WISCONSIN

CITY           SKY/WX    TMP DP  RH WIND       PRES   REMARKS
ANTIGO         PTCLDY     1  -9  61 W9        30.32F WCI -14
SHAWANO        PTCLDY    10  -8  44 W5        30.41F WCI   2
OCONTO         CLEAR      8  -7  49 SW6       30.42S WCI  -2
STURGEON BAY   CLEAR      9  -8  47 SW9       30.42F WCI  -5
GREEN BAY      PTCLDY     8  -6  52 SW5       30.43F WCI   0
MANITOWOC      PTCLDY     7  -3  64 SW5       30.45F WCI  -2
APPLETON       CLEAR      9  -8  47 SW7       30.42S WCI  -3
CLINTONVILLE   PTCLDY     9  -8  47 SW3       30.41F
OSHKOSH        PTCLDY    10  -5  50 VRB3      30.43F
$$

WIZ032>034-041-042-053>061-060300-
SOUTHWEST WISCONSIN

CITY           SKY/WX    TMP DP  RH WIND       PRES   REMARKS
LA CROSSE      CLEAR      8  -3  61 SW8       30.48S WCI  -4
SPARTA         CLEAR      8  -5  56 SW3       30.46F
VIROQUA        CLEAR      2  -7  66 SW8       30.42S WCI -12
BOSCOBEL       PTCLDY     6  -5  60 SW5       30.51S WCI  -3
PRAIRIE DU CHI MOCLDY     6  -6  59 S6        30.52S WCI  -5
PLATTEVILLE    PTCLDY     4  -6  65 S7        30.48F WCI  -9
$$

WIZ056-057-062-063-064-067-068-060300-
SOUTH CENTRAL WISCONSIN

CITY           SKY/WX    TMP DP  RH WIND       PRES   REMARKS
REEDSBURG      CLEAR      8  -5  54 SW5       30.45S WCI   0
BARABOO/DELLS  CLEAR      7  -7  51 CALM      30.44S
LONE ROCK      PTCLDY     4  -7  60 CALM      30.50R
MINERAL POINT  PTCLDY     9  -6  52 SW7       30.46S WCI  -3
MADISON        PTCLDY     8  -5  55 SW5       30.46F WCI   0
MIDDLETON      PTCLDY    10  -6  50 SW8       30.47R WCI  -3
WATERTOWN      PTCLDY     6  -4  61 S3        30.45F
MONROE         MOCLDY     5  -4  66 SW8       30.47R WCI  -8
JANESVILLE     CLEAR      7  -6  56 SW6       30.50S WCI  -3
$$

WIZ051-052-058>065-066-070>072-060300-
SOUTHEAST WISCONSIN

CITY           SKY/WX    TMP DP  RH WIND       PRES   REMARKS
MILWAUKEE      PTCLDY    11  -6  46 SW10      30.49S WCI  -3
WAUKESHA       CLEAR      7  -8  51 SW5       30.48S WCI  -2
MILWAUKEE/TIMM CLEAR      9  -8  47 SW5       30.49S WCI   0
RACINE         PTCLDY     7  -7  52 SW5       30.52S WCI  -2
BURLINGTON     PTCLDY     2  -8  63 SW6       30.49F WCI  -9
KENOSHA        PTCLDY     3  -8  60 SW9       30.50S WCI -12
FOND DU LAC    CLEAR      8  -3  61 SW3       30.45S
SHEBOYGAN      PTCLDY     5  -6  60 SW8       30.45F WCI  -8
WEST BEND      PTCLDY     7  -6  56 SW3       30.45S
JUNEAU         PTCLDY     7  -4  60 S6        30.46S WCI  -3
$$

LSZ147-162-060300-
LAKE SUPERIOR

STATION/POSITION TIME  TEMP    WIND        PRES    WAVE
                       AIR SEA DIR/SP/G            HT/PER
                 (UTC) (F)     (DEG/KT/KT) (MB)    (FT/S)
DEVILS ISLAND    0200   11     220/ 14/ 16 1027.3F
PORT WING        0140   11     190/  9/ 13 1026.4F
SAXON HARBOR     0100   12     210/  6/ 11 1027.1R
$$

LMZ867-665-643>646-060300-
LAKE MICHIGAN

STATION/POSITION TIME  TEMP    WIND        PRES    WAVE
                       AIR SEA DIR/SP/G            HT/PER
                 (UTC) (F)     (DEG/KT/KT) (MB)    (FT/S)
NORTHPORT PIER   0120   10     190/  6/ 10 1029.1S
SISTER BAY       0113   10     190/ 10/ 14   N/A
KEWAUNEE LAKESHO 0100   11     240/  3/  7 1029.9R
SHEBOYGAN LAKESH 0200   13     210/ 11/ 12 1033.4F
PORT WASHINGTON  0140   11     240/  4/  6 1032.8R
MILWAUKEE LAKESH 0100   15     260/  8/ 12   N/A
KENOSHA   LAKESH 0200   10     240/  5/ 11 1033.2S
$$

TC  - TEMPERATURE IN CELSIUS
VSB - VISIBILITY IN STATUTE MILES
WCI - WIND CHILL INDEX
HX  - HEAT INDEX



USA.gov is the U.S. government's official web portal to all federal, state and local government web resources and services.